Multibeam Report for RR1516


Ship Name: Roger Revelle
Chief Scientist: None
Source Organization: UNOLS R2R
Start Date: 2015-11-13
End Date: 2015-11-18


View ISO Metadata

Visit the full NCEI Bathymetry Viewer


Multibeam Bathymetry

Cruise Details

Project: Transit to shipyard
Instrument: Kongsberg EM122

Data Quality

Number of Files: 118
Number of Records: 28261
BATHYMETRY DATA Quantity Percentage
Number of Beams 12208752 100%
Number of Good Beams 10432542 85.45%
Number of Zero Beams 0 0%
Number of Flagged Beams 1776210 14.55%

Navigation Totals

Total Time: 53.7983 hours
Total Track Length: 1241.3737 km
Average Speed: 23.075 km/hr (12.4595 knots)

Cruise Bounds

Northern Extent: 20.037205
Southern Extent: 10.632854
Western Extent: 125.74603
Eastern Extent: 132.33543

Limits

Minimum Sonar Depth 4.1878 Maximum Sonar Depth 7.1231
Minimum Altitude 2132.3142 Maximum Altitude 9037.3203
Minimum Depth 1891.7045 Maximum Depth 9154.2852

File Information

Full Resolution Bathymetry as collected (raw): 114

Files File Size Description
0000_20151114_005342_revelle.all.mb58.gz 248.5KB Kongsberg multibeam vendor format
0001_20151114_005423_revelle.all.mb58.gz 32.15MB Kongsberg multibeam vendor format
0002_20151114_012422_revelle.all.mb58.gz 2.18MB Kongsberg multibeam vendor format
0003_20151114_012621_revelle.all.mb58.gz 1.30MB Kongsberg multibeam vendor format
0004_20151114_012728_revelle.all.mb58.gz 1.03MB Kongsberg multibeam vendor format
0006_20151114_012822_revelle.all.mb58.gz 429.5KB Kongsberg multibeam vendor format
0007_20151114_014017_revelle.all.mb58.gz 33.89MB Kongsberg multibeam vendor format
0008_20151114_020958_revelle.all.mb58.gz 34.10MB Kongsberg multibeam vendor format
0009_20151114_023956_revelle.all.mb58.gz 34.39MB Kongsberg multibeam vendor format
0010_20151114_030956_revelle.all.mb58.gz 34.24MB Kongsberg multibeam vendor format
0011_20151114_034003_revelle.all.mb58.gz 34.25MB Kongsberg multibeam vendor format
0012_20151114_041007_revelle.all.mb58.gz 34.30MB Kongsberg multibeam vendor format
0013_20151114_044008_revelle.all.mb58.gz 33.90MB Kongsberg multibeam vendor format
0014_20151114_051007_revelle.all.mb58.gz 34.11MB Kongsberg multibeam vendor format
0015_20151114_054004_revelle.all.mb58.gz 34.30MB Kongsberg multibeam vendor format
0016_20151114_061004_revelle.all.mb58.gz 33.04MB Kongsberg multibeam vendor format
0017_20151114_064008_revelle.all.mb58.gz 33.92MB Kongsberg multibeam vendor format
0018_20151114_071002_revelle.all.mb58.gz 33.80MB Kongsberg multibeam vendor format
0019_20151114_073955_revelle.all.mb58.gz 33.60MB Kongsberg multibeam vendor format
0020_20151114_080956_revelle.all.mb58.gz 34.04MB Kongsberg multibeam vendor format
0021_20151114_083956_revelle.all.mb58.gz 33.98MB Kongsberg multibeam vendor format
0022_20151114_091001_revelle.all.mb58.gz 34.24MB Kongsberg multibeam vendor format
0023_20151114_093958_revelle.all.mb58.gz 33.58MB Kongsberg multibeam vendor format
0024_20151114_101000_revelle.all.mb58.gz 33.30MB Kongsberg multibeam vendor format
0025_20151114_103958_revelle.all.mb58.gz 34.63MB Kongsberg multibeam vendor format
0026_20151114_110956_revelle.all.mb58.gz 34.43MB Kongsberg multibeam vendor format
0027_20151114_113956_revelle.all.mb58.gz 33.79MB Kongsberg multibeam vendor format
0028_20151114_121000_revelle.all.mb58.gz 34.25MB Kongsberg multibeam vendor format
0029_20151114_123957_revelle.all.mb58.gz 34.39MB Kongsberg multibeam vendor format
0030_20151114_131000_revelle.all.mb58.gz 34.25MB Kongsberg multibeam vendor format
0031_20151114_134001_revelle.all.mb58.gz 33.56MB Kongsberg multibeam vendor format
0032_20151114_141003_revelle.all.mb58.gz 33.76MB Kongsberg multibeam vendor format
0033_20151114_143952_revelle.all.mb58.gz 34.43MB Kongsberg multibeam vendor format
0034_20151114_151006_revelle.all.mb58.gz 33.94MB Kongsberg multibeam vendor format
0035_20151114_154000_revelle.all.mb58.gz 34.14MB Kongsberg multibeam vendor format
0036_20151114_161000_revelle.all.mb58.gz 34.34MB Kongsberg multibeam vendor format
0037_20151114_163957_revelle.all.mb58.gz 34.20MB Kongsberg multibeam vendor format
0038_20151114_171001_revelle.all.mb58.gz 33.48MB Kongsberg multibeam vendor format
0039_20151114_174001_revelle.all.mb58.gz 34.62MB Kongsberg multibeam vendor format
0040_20151114_180956_revelle.all.mb58.gz 34.00MB Kongsberg multibeam vendor format
0041_20151114_183951_revelle.all.mb58.gz 34.78MB Kongsberg multibeam vendor format
0042_20151114_190957_revelle.all.mb58.gz 34.72MB Kongsberg multibeam vendor format
0043_20151114_193956_revelle.all.mb58.gz 34.34MB Kongsberg multibeam vendor format
0044_20151114_200952_revelle.all.mb58.gz 34.39MB Kongsberg multibeam vendor format
0045_20151114_203952_revelle.all.mb58.gz 34.59MB Kongsberg multibeam vendor format
0046_20151114_211000_revelle.all.mb58.gz 34.30MB Kongsberg multibeam vendor format
0047_20151114_213957_revelle.all.mb58.gz 34.65MB Kongsberg multibeam vendor format
0048_20151114_220958_revelle.all.mb58.gz 33.20MB Kongsberg multibeam vendor format
0049_20151114_223952_revelle.all.mb58.gz 34.99MB Kongsberg multibeam vendor format
0050_20151114_231003_revelle.all.mb58.gz 34.31MB Kongsberg multibeam vendor format
0051_20151114_234002_revelle.all.mb58.gz 34.82MB Kongsberg multibeam vendor format
0052_20151115_000952_revelle.all.mb58.gz 35.73MB Kongsberg multibeam vendor format
0053_20151115_003955_revelle.all.mb58.gz 35.54MB Kongsberg multibeam vendor format
0054_20151115_011012_revelle.all.mb58.gz 36.31MB Kongsberg multibeam vendor format
0055_20151115_014017_revelle.all.mb58.gz 34.46MB Kongsberg multibeam vendor format
0056_20151115_021016_revelle.all.mb58.gz 35.17MB Kongsberg multibeam vendor format
0057_20151115_024010_revelle.all.mb58.gz 35.89MB Kongsberg multibeam vendor format
0058_20151115_031017_revelle.all.mb58.gz 35.92MB Kongsberg multibeam vendor format
0059_20151115_034016_revelle.all.mb58.gz 34.17MB Kongsberg multibeam vendor format
0060_20151115_041016_revelle.all.mb58.gz 35.25MB Kongsberg multibeam vendor format
0061_20151115_044010_revelle.all.mb58.gz 35.40MB Kongsberg multibeam vendor format
0062_20151115_051014_revelle.all.mb58.gz 36.14MB Kongsberg multibeam vendor format
0063_20151115_054017_revelle.all.mb58.gz 35.50MB Kongsberg multibeam vendor format
0064_20151115_061012_revelle.all.mb58.gz 34.91MB Kongsberg multibeam vendor format
0065_20151115_064015_revelle.all.mb58.gz 34.99MB Kongsberg multibeam vendor format
0066_20151115_071010_revelle.all.mb58.gz 36.13MB Kongsberg multibeam vendor format
0067_20151115_074009_revelle.all.mb58.gz 35.65MB Kongsberg multibeam vendor format
0068_20151115_081017_revelle.all.mb58.gz 34.19MB Kongsberg multibeam vendor format
0069_20151115_084016_revelle.all.mb58.gz 35.33MB Kongsberg multibeam vendor format
0070_20151115_091012_revelle.all.mb58.gz 34.97MB Kongsberg multibeam vendor format
0071_20151115_094019_revelle.all.mb58.gz 35.01MB Kongsberg multibeam vendor format
0072_20151115_101014_revelle.all.mb58.gz 34.29MB Kongsberg multibeam vendor format
0073_20151115_104013_revelle.all.mb58.gz 34.70MB Kongsberg multibeam vendor format
0074_20151115_111016_revelle.all.mb58.gz 35.86MB Kongsberg multibeam vendor format
0075_20151115_114012_revelle.all.mb58.gz 36.90MB Kongsberg multibeam vendor format
0076_20151115_121008_revelle.all.mb58.gz 35.52MB Kongsberg multibeam vendor format
0077_20151115_124017_revelle.all.mb58.gz 35.87MB Kongsberg multibeam vendor format
0078_20151115_131010_revelle.all.mb58.gz 35.84MB Kongsberg multibeam vendor format
0079_20151115_134009_revelle.all.mb58.gz 37.28MB Kongsberg multibeam vendor format
0080_20151115_141016_revelle.all.mb58.gz 35.93MB Kongsberg multibeam vendor format
0081_20151115_144009_revelle.all.mb58.gz 35.65MB Kongsberg multibeam vendor format
0082_20151115_151017_revelle.all.mb58.gz 35.45MB Kongsberg multibeam vendor format
0083_20151115_154009_revelle.all.mb58.gz 35.85MB Kongsberg multibeam vendor format
0084_20151115_161007_revelle.all.mb58.gz 35.18MB Kongsberg multibeam vendor format
0085_20151115_164018_revelle.all.mb58.gz 34.40MB Kongsberg multibeam vendor format
0086_20151115_171008_revelle.all.mb58.gz 35.31MB Kongsberg multibeam vendor format
0087_20151115_174010_revelle.all.mb58.gz 35.70MB Kongsberg multibeam vendor format
0088_20151115_181017_revelle.all.mb58.gz 34.78MB Kongsberg multibeam vendor format
0089_20151115_184009_revelle.all.mb58.gz 34.97MB Kongsberg multibeam vendor format
0090_20151115_191013_revelle.all.mb58.gz 35.80MB Kongsberg multibeam vendor format
0091_20151115_194012_revelle.all.mb58.gz 34.90MB Kongsberg multibeam vendor format
0092_20151115_201008_revelle.all.mb58.gz 34.92MB Kongsberg multibeam vendor format
0093_20151115_204012_revelle.all.mb58.gz 34.79MB Kongsberg multibeam vendor format
0094_20151115_211009_revelle.all.mb58.gz 35.06MB Kongsberg multibeam vendor format
0095_20151115_214006_revelle.all.mb58.gz 35.21MB Kongsberg multibeam vendor format
0096_20151115_221016_revelle.all.mb58.gz 35.31MB Kongsberg multibeam vendor format
0097_20151115_224003_revelle.all.mb58.gz 38.67MB Kongsberg multibeam vendor format
0098_20151115_231013_revelle.all.mb58.gz 38.36MB Kongsberg multibeam vendor format
0099_20151115_234003_revelle.all.mb58.gz 35.45MB Kongsberg multibeam vendor format
0100_20151116_001012_revelle.all.mb58.gz 34.91MB Kongsberg multibeam vendor format
0101_20151116_004014_revelle.all.mb58.gz 34.84MB Kongsberg multibeam vendor format
0102_20151116_011005_revelle.all.mb58.gz 35.04MB Kongsberg multibeam vendor format
0103_20151116_014015_revelle.all.mb58.gz 34.63MB Kongsberg multibeam vendor format
0104_20151116_021010_revelle.all.mb58.gz 35.11MB Kongsberg multibeam vendor format
0105_20151116_024010_revelle.all.mb58.gz 35.19MB Kongsberg multibeam vendor format
0106_20151116_031013_revelle.all.mb58.gz 35.06MB Kongsberg multibeam vendor format
0107_20151116_034012_revelle.all.mb58.gz 35.02MB Kongsberg multibeam vendor format
0108_20151116_041014_revelle.all.mb58.gz 35.16MB Kongsberg multibeam vendor format
0109_20151116_044015_revelle.all.mb58.gz 35.55MB Kongsberg multibeam vendor format
0110_20151116_051006_revelle.all.mb58.gz 34.89MB Kongsberg multibeam vendor format
0111_20151116_054014_revelle.all.mb58.gz 34.76MB Kongsberg multibeam vendor format
0112_20151116_061008_revelle.all.mb58.gz 35.16MB Kongsberg multibeam vendor format
0113_20151116_064014_revelle.all.mb58.gz 34.56MB Kongsberg multibeam vendor format
0114_20151116_071010_revelle.all.mb58.gz 13.22MB Kongsberg multibeam vendor format

Metadata Files: 3

Files File Size Description
RR1516_Multibeam.xml NGDC created ISO metadata
em122_bag_info.tar.gz 5.6KB Additional cruise information
xbt_bag_info.tar.gz 1.3KB Additional cruise information

Ancillary Files: 1

Files File Size Description
xbt.tar.gz 90.0KB Expendable Bathythermograph (XBT) data